Regional Weather Roundup
Issued by NWS New Orleans/Baton Rouge, LA

Home | Current Version | Previous Version | Text Only | Print | Product List | Glossary Off
Versions: 1 2 3 4 5 6 7 8 9 10 11 12 13 14 15 16 17 18 19 20 21 22 23 24 25 26 27 28 29 30 31 32 33 34 35 36 37 38 39 40 41 42 43 44 45 46 47 48 49 50

740
ASUS44 KLIX 211410
RWRLIX
NEW ORLEANS REGIONAL WEATHER ROUNDUP
NATIONAL WEATHER SERVICE NEW ORLEANS LA
900 AM CDT TUE OCT 21 2014

NOTE: "FAIR" INDICATES FEW OR NO CLOUDS BELOW 12,000 FEET WITH NO
      SIGNIFICANT WEATHER AND/OR OBSTRUCTIONS TO VISIBILITY.
      SKY/WX - SKY CONDITION AND SIGNIFICANT WEATHER.
      TMP - AIR TEMPERATURE.     DP    - DEWPOINT TEMPERATURE.
      RH  - RELATIVE HUMIDITY.   PRES  - PRESSURE.
      HI  - HEAT INDEX.          WCI   - WIND CHILL INDEX.

*  THESE STATIONS ARE NOT NWS OR FAA STATIONS AND ARE NOT UNDER
   NWS QUALITY CONTROL.

LAZ038-040-048-061>063-065>067-069-211500-
SOUTHEAST LOUISIANA

CITY           SKY/WX    TMP DP  RH WIND       PRES   REMARKS
N.O. AUDUBON     N/A     71  56  58 MISG        N/A
N.O. INTL ARPT MOSUNNY   70  57  63 NE13      30.05R
N.O. LAKEFRONT SUNNY     69  56  62 NE14      30.06R
N.O. DOWNTOWN*   N/A     66  50  55 NE7       30.06R
SLIDELL        SUNNY     61  54  77 N6        30.07R
BATON ROUGE    SUNNY     62  53  72 NE8       30.08R
BOOTHVILLE     SUNNY     74  63  68 NE8       30.04R
BELLE CHASSE   MOSUNNY   68  56  65 NE8       30.05R
BOGALUSA*        N/A     60  53  75 N3        30.10R
NEW ROADS*       N/A     62  56  80 CALM      30.09R
GONZALES*        N/A     63  55  76 NE3       30.07R
HAMMOND*       SUNNY     64  52  63 NE5       30.09S
HOUMA*         SUNNY     64  57  77 N9        30.05R
PORT FOURCHON* SUNNY     73  63  68 NE10      30.07R

$$

MSZ070-080>082-211500-
SOUTHERN MISSISSIPPI

CITY           SKY/WX    TMP DP  RH WIND       PRES   REMARKS
MCCOMB         SUNNY     62  50  64 E3        30.09R
GULFPORT       SUNNY     63  53  70 N6        30.06R
BILOXI         SUNNY     62  52  70 NE6       30.07R
PASCAGOULA     SUNNY     61  54  77 N5        30.07R
STENNIS ARPT*  SUNNY     63  50  63 E3        30.07R

$$

COASTAL OBSERVATIONS
LAKE AND NEARSHORE STATIONS

STATION/POSITION TIME  TEMP    WIND        PRES    WAVE
                       AIR SEA DIR/SP/G            HT/PER
                 (UTC) (F)     (DEG/KT/KT) (MB)    (FT/S)
PASCAGOULA       1400   63      30/  7/  9 1017.4
WAVELAND YACHT   1400   64      40/  7/  9 1017.2
GRAND ISLE       1400   71 76   50/  9/ 13 1017.5
SOUTHWEST PASS   1400   76 83              1016.8
NEW CANAL        1400   68 71   60/ 12/ 14 1018.0
SHELL BEACH      1400   69 68   30/ 12/ 14 1017.3

OFFSHORE STATIONS

STATION/POSITION TIME  TEMP    WIND        PRES    WAVE
                       AIR SEA DIR/SP/G            HT/PER
                 (UTC) (F)     (DEG/KT/KT) (MB)    (FT/S)
64 S DAUPHIN ISL 1325   75 79   40/ 12/ 16 1017.0    1/ 5

$$




USA.gov is the U.S. government's official web portal to all federal, state and local government web resources and services.